Date String (YYYY-MM-DD hh:mm:ss) UTC,Instrument flags,Ambient pressure (hPa),Sample flow (lpm),Bypass flow (lpm),Sample temperature (°C),Ambient temperature (°C),ASC tube jacket temperature (°C),LED temperature (°C),Box temperature (°C),Sample RH (%),Span deviation,Mass concentration (μg/m³),Mass concentration (μg/m³),Mass concentration (μg/m³)
DateTimeUTC,F1_M11,P_M11,Q1_M11,Q2_M11,T1_M11,T2_M11,T3_M11,T4_M11,T5_M11,U1_M11,ZSPAN_M11,X2_M11,X0_M11,X1_M11
2023-04-26 21:00:00,,0831.2,5.00,0.00,24.0,22.6,00.0,32.4,25.5,23.3,0000.0,0003.60,0005.85,0003.49
2023-04-26 21:01:00,,0831.2,5.00,0.00,24.0,22.6,00.0,32.4,25.5,22.8,0000.0,0003.61,0005.89,0003.49
2023-04-26 21:02:00,,0831.1,5.01,0.00,24.0,22.6,00.0,32.4,25.5,22.5,0000.0,0003.61,0005.81,0003.49
2023-04-26 21:03:00,,0831.1,5.01,0.00,24.0,22.6,00.0,32.4,25.5,23.0,0000.0,0003.63,0005.87,0003.51
2023-04-26 21:04:00,,0831.1,5.01,0.00,24.0,22.5,00.0,32.4,25.5,22.5,0000.0,0003.63,0005.98,0003.50
2023-04-26 21:05:00,,0831.1,5.00,0.00,24.0,22.5,00.0,32.4,25.5,22.2,0000.0,0003.62,0005.55,0003.50
2023-04-26 21:06:00,,0831.2,5.00,0.00,24.0,22.5,00.0,32.4,25.5,22.3,0000.0,0003.60,0004.84,0003.48
2023-04-26 21:07:00,,0831.1,5.01,0.00,24.0,22.5,00.0,32.4,25.5,22.1,0000.0,0003.58,0004.83,0003.44
2023-04-26 21:08:00,,0831.1,4.99,0.00,24.0,22.5,00.0,32.4,25.5,23.0,0000.0,0003.53,0004.72,0003.40
2023-04-26 21:09:00,,0831.2,5.00,0.00,24.0,22.5,00.0,32.4,25.5,22.7,0000.0,0003.49,0004.87,0003.36
2023-04-26 21:10:00,,0831.1,5.00,0.00,24.0,22.5,00.0,32.4,25.5,22.4,0000.0,0003.47,0005.02,0003.34
2023-04-26 21:11:00,,0831.1,5.00,0.00,24.0,22.5,00.0,32.4,25.5,22.2,0000.0,0003.45,0004.96,0003.31
2023-04-26 21:12:00,,0831.1,5.00,0.00,24.0,22.5,00.0,32.4,25.5,22.2,0000.0,0003.42,0004.98,0003.29
2023-04-26 21:13:00,,0831.0,5.00,0.00,24.0,22.5,00.0,32.4,25.5,22.2,0000.0,0003.42,0005.00,0003.28
2023-04-26 21:14:00,,0831.0,4.99,0.00,24.0,22.4,00.0,32.4,25.5,22.1,0000.0,0003.42,0005.04,0003.28
2023-04-26 21:15:00,,0830.9,5.00,0.00,24.0,22.4,00.0,32.4,25.5,22.4,0000.0,0003.40,0004.92,0003.27
2023-04-26 21:16:00,,0830.9,5.01,0.00,23.9,22.5,00.0,32.4,25.5,22.4,0000.0,0003.38,0004.88,0003.25
2023-04-26 21:17:00,,0830.9,5.00,0.00,23.9,22.5,00.0,32.4,25.5,22.4,0000.0,0003.37,0004.84,0003.25
2023-04-26 21:18:00,,0831.0,5.00,0.00,24.0,22.6,00.0,32.4,25.5,22.5,0000.0,0003.36,0004.83,0003.25
2023-04-26 21:19:00,,0830.9,4.98,0.00,24.0,22.6,00.0,32.4,25.5,22.1,0000.0,0003.39,0004.89,0003.27
2023-04-26 21:20:00,,0830.9,5.01,0.00,24.0,22.7,00.0,32.4,25.5,22.1,0000.0,0003.41,0004.72,0003.28
2023-04-26 21:21:00,,0830.9,5.01,0.00,24.0,22.7,00.0,32.4,25.5,22.5,0000.0,0003.41,0004.60,0003.27
2023-04-26 21:22:00,,0831.0,5.00,0.00,24.0,22.7,00.0,32.4,25.5,22.0,0000.0,0003.40,0004.59,0003.26
2023-04-26 21:23:00,,0830.9,4.99,0.00,24.0,22.8,00.0,32.4,25.5,22.3,0000.0,0003.39,0004.51,0003.25
2023-04-26 21:24:00,,0830.9,5.00,0.00,24.0,22.8,00.0,32.4,25.5,21.8,0000.0,0003.40,0004.70,0003.24
2023-04-26 21:25:00,,0830.9,5.00,0.00,24.0,22.8,00.0,32.4,25.5,21.7,0000.0,0003.39,0004.63,0003.21
2023-04-26 21:26:00,,0830.9,5.00,0.00,24.0,22.7,00.0,32.4,25.5,21.6,0000.0,0003.35,0004.50,0003.20
2023-04-26 21:27:00,,0830.9,5.01,0.00,24.0,22.7,00.0,32.4,25.5,21.8,0000.0,0003.34,0004.41,0003.17
2023-04-26 21:28:00,,0830.9,4.98,0.00,24.0,22.7,00.0,32.4,25.5,22.4,0000.0,0003.33,0004.44,0003.15
2023-04-26 21:29:00,,0830.8,5.00,0.00,24.0,22.7,00.0,32.4,25.5,22.2,0000.0,0003.32,0004.41,0003.14
2023-04-26 21:30:00,,0830.8,5.01,0.00,24.0,22.7,00.0,32.4,25.5,21.7,0000.0,0003.30,0004.39,0003.12
2023-04-26 21:31:00,,0830.8,4.99,0.00,24.0,22.7,00.0,32.4,25.5,22.0,0000.0,0003.27,0004.33,0003.11
2023-04-26 21:32:00,,0830.8,4.99,0.00,24.0,22.8,00.0,32.4,25.6,21.9,0000.0,0003.26,0004.35,0003.11
2023-04-26 21:33:00,,0830.8,5.01,0.00,24.1,22.8,00.0,32.4,25.6,22.2,0000.0,0003.26,0004.93,0003.09
2023-04-26 21:34:00,,0830.9,5.01,0.00,24.1,22.8,00.0,32.4,25.6,22.1,0000.0,0003.25,0005.07,0003.07
2023-04-26 21:35:00,,0830.8,4.99,0.00,24.1,22.8,00.0,32.4,25.6,21.6,0000.0,0003.22,0006.25,0003.05
2023-04-26 21:36:00,,0830.8,4.99,0.00,24.1,22.9,00.0,32.4,25.6,21.3,0000.0,0003.20,0006.46,0003.03
2023-04-26 21:37:00,,0830.8,5.00,0.00,24.1,22.9,00.0,32.5,25.6,22.0,0000.0,0003.21,0006.55,0003.01
2023-04-26 21:38:00,,0830.7,5.00,0.00,24.1,22.9,00.0,32.5,25.6,22.0,0000.0,0003.23,0006.65,0003.02
2023-04-26 21:39:00,,0830.7,5.01,0.00,24.1,22.9,00.0,32.5,25.7,22.9,0000.0,0003.22,0006.57,0003.02
2023-04-26 21:40:00,,0830.7,4.99,0.00,24.1,22.9,00.0,32.5,25.7,22.6,0000.0,0003.21,0006.54,0003.02
2023-04-26 21:41:00,,0830.7,4.99,0.00,24.1,22.9,00.0,32.5,25.7,22.8,0000.0,0003.21,0006.52,0003.02
2023-04-26 21:42:00,,0830.6,5.01,0.00,24.1,22.9,00.0,32.5,25.7,23.2,0000.0,0003.20,0006.60,0003.01
2023-04-26 21:43:00,,0830.6,5.01,0.00,24.2,22.9,00.0,32.5,25.7,22.8,0000.0,0003.21,0006.55,0003.03
2023-04-26 21:44:00,,0830.6,5.00,0.00,24.2,22.9,00.0,32.5,25.7,21.9,0000.0,0003.23,0006.19,0003.07
2023-04-26 21:45:00,,0830.6,5.00,0.00,24.2,22.9,00.0,32.5,25.7,22.6,0000.0,0003.26,0006.01,0003.11
2023-04-26 21:46:00,,0830.5,4.98,0.00,24.2,22.9,00.0,32.5,25.7,22.3,0000.0,0003.28,0004.62,0003.13
2023-04-26 21:47:00,,0830.5,5.01,0.00,24.2,22.9,00.0,32.5,25.7,23.2,0000.0,0003.28,0004.35,0003.13
2023-04-26 21:48:00,,0830.6,5.00,0.00,24.2,23.0,00.0,32.5,25.7,23.3,0000.0,0003.29,0004.33,0003.14
2023-04-26 21:49:00,,0830.5,5.01,0.00,24.2,23.0,00.0,32.5,25.8,23.4,0000.0,0003.25,0004.25,0003.13
2023-04-26 21:50:00,,0830.5,5.00,0.00,24.2,23.0,00.0,32.6,25.8,22.8,0000.0,0003.28,0004.42,0003.14
2023-04-26 21:51:00,,0830.6,5.01,0.00,24.2,23.0,00.0,32.6,25.8,22.5,0000.0,0003.30,0004.59,0003.16
2023-04-26 21:52:00,,0830.4,5.00,0.00,24.2,23.0,00.0,32.6,25.8,22.5,0000.0,0003.33,0005.24,0003.18
2023-04-26 21:53:00,,0830.4,5.00,0.00,24.2,23.0,00.0,32.6,25.8,21.8,0000.0,0003.36,0005.20,0003.21
2023-04-26 21:54:00,,0830.4,5.00,0.00,24.2,22.9,00.0,32.6,25.7,21.9,0000.0,0003.37,0005.43,0003.23
2023-04-26 21:55:00,,0830.4,4.99,0.00,24.2,23.0,00.0,32.6,25.8,22.2,0000.0,0003.37,0005.52,0003.23
2023-04-26 21:56:00,,0830.4,5.00,0.00,24.2,23.0,00.0,32.6,25.8,22.5,0000.0,0003.37,0005.58,0003.23
2023-04-26 21:57:00,,0830.5,5.00,0.00,24.2,23.0,00.0,32.6,25.9,22.9,0000.0,0003.37,0005.63,0003.21
2023-04-26 21:58:00,,0830.4,5.01,0.00,24.2,23.0,00.0,32.6,25.9,22.9,0000.0,0003.38,0005.70,0003.20
2023-04-26 21:59:00,,0830.4,5.00,0.00,24.2,23.0,00.0,32.6,25.9,22.5,0000.0,0003.38,0005.66,0003.21
